Home   Weather   Hamilton   Past weeks
Flag for Canada

Past Weather in Hamilton, Ontario, Canada — Yesterday and Last 2 Weeks

Now
84 °F

Scattered clouds.


Feels Like: 94 °F
Forecast: 90 / 78 °F
Wind: 10 mph from Southwest

Location: Hamilton Airport

Current Time: Jul 20, 2019 at 1:57:00 pm

Latest Report: Jul 20, 2019 at 1:00 pm


Visibility: 15 mi

Pressure: 29.81 "Hg

Humidity: 79%

Dew Point: 77 °F

Location of HamiltonLocation

Past Weather in Hamilton — Graph

°F

Hamilton Temperature Yesterday

Maximum temperature yesterday: 86 °F (at 12:00 pm)
Minimum temperature yesterday: 72 °F (at 12:00 am)
Average temperature yesterday: 76 °F

High & Low Weather Summary for the Past Weeks

 TemperatureHumidityPressure
High90 °F (Jul 5, 4:00 pm)100% (Jul 5, 9:00 pm)30.14 "Hg (Jul 5, 9:00 pm)
Low55 °F (Jul 8, 3:00 am)39% (Jul 9, 2:00 pm)29.74 "Hg (Jul 11, 2:39 pm)
Average72 °F80%29.95 "Hg
* Reported Jul 5 12:00 pm — Jul 20 12:00 pm, Hamilton. Weather by CustomWeather, © 2019

Note: Actual official high and low records may vary slightly from our data, if they occured in-between our weather recording intervals... More about our weather records

Advertising

Hamilton Weather History for the Previous 24 Hours

Scroll right to see more
 ConditionsComfort  
Time TempWeatherWind HumidityBarometerVisibility
12:00 pm
Sat, Jul 20
82 °FPartly sunny.10 mph79%29.82 "Hg15 mi
11:00 am77 °FMostly cloudy.10 mph94%29.85 "Hg15 mi
10:00 am77 °FMostly cloudy.15 mph94%29.85 "Hg15 mi
9:24 am77 °FMostly cloudy.15 mph94%29.83 "Hg12 mi
9:00 am77 °FBroken clouds.15 mph94%29.82 "Hg15 mi
8:00 am75 °FMore clouds than sun.14 mph94%29.83 "Hg15 mi
7:00 am75 °FMore clouds than sun.9 mph94%29.82 "Hg15 mi
6:00 am75 °FLow clouds.13 mph94%29.84 "Hg12 mi
5:00 am75 °FPassing clouds.8 mph100%29.84 "Hg15 mi
4:00 am77 °FPartly cloudy.15 mph94%29.87 "Hg15 mi
3:00 am77 °FPartly cloudy.10 mph94%29.85 "Hg15 mi
2:00 am77 °FPartly cloudy.10 mph100%29.85 "Hg15 mi
1:00 am77 °FMostly cloudy.8 mph100%29.83 "Hg15 mi
12:00 am77 °FPartly cloudy.7 mph100%29.83 "Hg15 mi
11:00 pm
Fri, Jul 19
75 °FPartly cloudy.3 mph100%29.85 "Hg15 mi
10:00 pm75 °FPartly cloudy.6 mph100%29.84 "Hg15 mi
9:00 pm75 °FPartly cloudy.7 mph100%29.82 "Hg15 mi
8:00 pm77 °FBroken clouds.8 mph89%29.83 "Hg15 mi
7:00 pm79 °FBroken clouds.15 mph89%29.81 "Hg15 mi
6:00 pm79 °FOvercast.15 mph94%29.82 "Hg15 mi
5:00 pm79 °FMore clouds than sun.12 mph84%29.84 "Hg15 mi
4:00 pm75 °FMore clouds than sun.13 mph89%29.85 "Hg15 mi
3:00 pm73 °FMostly cloudy.6 mph94%29.84 "Hg15 mi
2:00 pm73 °FThunderstorms. Mostly cloudy.17 mph94%29.85 "Hg10 mi
1:46 pm72 °FThunderstorms. Overcast.17 mph100%29.86 "Hg7 mi
1:38 pm73 °FStrong thunderstorms. Fog.9 mph94%29.86 "Hg1 mi
1:15 pm84 °FSprinkles. Mostly cloudy.3 mph84%29.83 "Hg10 mi
Weather by CustomWeather, © 2019

See weather overview